FW0923 Weather Reports


Display with metric or nautical units.
time (UTC)temp
F
wind
direction
speed
MPH
gust
MPH
rain 1hr
in
rain 24hr
in
rain mn
in
humidity
%
barometer
mb
20200711204314 89 332 1.0 5.0 0.00 0.00 0.00 72 1011.2
20200711203317 90 314 1.0 3.0 0.00 0.00 0.00 71 1011.3
20200711202315 89 316 2.0 5.0 0.00 0.00 0.00 70 1011.2
20200711201331 90 299 3.0 5.0 0.00 0.00 0.00 70 1011.2
20200711200329 90 302 2.0 7.0 0.00 0.00 0.00 70 1011.2
20200711195329 90 295 3.0 6.0 0.00 0.00 0.00 71 1011.2
20200711194327 90 292 2.0 5.0 0.00 0.00 0.00 70 1011.6
20200711193326 90 319 2.0 8.0 0.00 0.00 0.00 70 1011.8
20200711192327 90 298 2.0 8.0 0.00 0.00 0.00 71 1011.9
20200711191326 91 291 3.0 4.0 0.00 0.00 0.00 70 1011.9
20200711190324 91 334 2.0 5.0 0.00 0.00 0.00 71 1012.1
20200711185324 90 298 3.0 8.0 0.00 0.00 0.00 72 1012.2
20200711184321 90 340 3.0 8.0 0.00 0.00 0.00 72 1012.2
20200711183319 90 306 2.0 8.0 0.00 0.00 0.00 73 1012.3
20200711182316 90 289 4.0 8.0 0.00 0.00 0.00 73 1012.4
20200711181317 89 351 3.0 10.0 0.00 0.00 0.00 73 1012.5
20200711180315 89 284 2.0 9.0 0.00 0.00 0.00 73 1012.5
20200711175330 89 316 3.0 9.0 0.00 0.02 0.00 72 1012.6
20200711174313 89 332 3.0 7.0 0.00 0.02 0.00 74 1012.6
20200711173331 90 305 2.0 8.0 0.00 0.02 0.00 75 1012.6
20200711172330 90 281 2.0 7.0 0.00 0.02 0.00 73 1012.7
20200711171313 90 302 2.0 5.0 0.00 0.02 0.00 72 1012.6
20200711170312 90 291 1.0 4.0 0.00 0.02 0.00 73 1012.8
20200711165329 89 301 1.0 4.0 0.00 0.02 0.00 73 1012.9
20200711164327 88 319 2.0 5.0 0.00 0.02 0.00 75 1012.9
20200711163329 87 310 2.0 6.0 0.00 0.02 0.00 76 1013.0
20200711162328 89 309 3.0 7.0 0.00 0.02 0.00 76 1013.0
20200711161326 88 298 3.0 10.0 0.00 0.02 0.00 76 1013.0
20200711160329 88 292 3.0 7.0 0.00 0.02 0.00 76 1013.0
20200711155325 88 288 2.0 5.0 0.00 0.02 0.00 76 1013.1
20200711154324 89 294 2.0 5.0 0.00 0.02 0.00 74 1013.1
20200711153326 89 344 2.0 8.0 0.00 0.02 0.00 73 1013.2
20200711152324 88 286 3.0 7.0 0.00 0.02 0.00 75 1013.1
20200711151324 87 288 3.0 5.0 0.00 0.02 0.00 75 1013.2
20200711150323 88 309 2.0 4.0 0.00 0.02 0.00 76 1013.2
20200711145319 87 299 2.0 4.0 0.00 0.02 0.00 77 1013.1
20200711144317 87 306 2.0 7.0 0.00 0.02 0.00 76 1013.1
20200711143315 87 297 2.0 5.0 0.00 0.02 0.00 78 1013.0
20200711142316 87 300 2.0 7.0 0.00 0.02 0.00 78 1013.0
20200711141314 87 296 1.0 5.0 0.00 0.02 0.00 79 1013.1
20200711140330 86 304 1.0 5.0 0.00 0.02 0.00 79 1013.2
20200711135330 85 345 3.0 5.0 0.00 0.02 0.00 80 1013.3
20200711134328 86 284 2.0 6.0 0.00 0.02 0.00 79 1013.3
20200711133326 85 298 1.0 8.0 0.00 0.02 0.00 81 1013.3
20200711132326 85 311 1.0 5.0 0.00 0.02 0.00 81 1013.4
20200711131323 85 315 2.0 7.0 0.00 0.02 0.00 80 1013.3
20200711130322 85 291 3.0 7.0 0.00 0.02 0.00 82 1013.4
20200711125319 84 318 2.0 5.0 0.00 0.02 0.00 83 1013.3
20200711124320 84 292 2.0 4.0 0.00 0.02 0.00 84 1013.2
20200711123319 83 290 2.0 5.0 0.00 0.02 0.00 86 1013.2
20200711122316 83 288 2.0 4.0 0.00 0.02 0.00 87 1013.1
20200711121319 83 300 2.0 4.0 0.00 0.02 0.00 88 1012.9
20200711120317 82 313 1.0 4.0 0.00 0.02 0.00 88 1012.8
20200711115313 83 295 1.0 5.0 0.00 0.02 0.00 87 1012.7
20200711114326 84 288 2.0 5.0 0.00 0.02 0.00 85 1012.7
20200711113313 84 292 1.0 3.0 0.00 0.02 0.00 85 1012.6
20200711112331 83 305 1.0 3.0 0.00 0.02 0.00 85 1012.5
20200711111313 83 329 0.0 4.0 0.00 0.02 0.00 85 1012.4
20200711110331 83 271 1.0 5.0 0.00 0.02 0.00 86 1012.4
20200711105327 83 300 0.0 4.0 0.00 0.02 0.00 87 1012.2
20200711104325 83 293 3.0 7.0 0.00 0.02 0.00 87 1012.2
20200711103328 83 326 1.0 7.0 0.00 0.02 0.00 87 1012.3
20200711102327 84 294 1.0 4.0 0.00 0.02 0.00 87 1012.1
20200711101323 84 289 1.0 4.0 0.00 0.02 0.00 86 1012.2
20200711100325 84 287 2.0 6.0 0.00 0.02 0.00 85 1012.1
20200711095321 84 271 2.0 4.0 0.00 0.02 0.00 85 1011.9
20200711094319 83 284 1.0 4.0 0.00 0.02 0.00 84 1011.9
20200711093321 83 316 1.0 3.0 0.00 0.02 0.00 85 1011.8
20200711092317 83 309 1.0 7.0 0.00 0.02 0.00 85 1011.8
20200711091315 83 293 1.0 4.0 0.00 0.02 0.00 86 1011.8
20200711090314 83 336 0.0 2.0 0.00 0.02 0.00 86 1011.8
20200711085313 83 338 1.0 3.0 0.00 0.02 0.00 86 1011.9
20200711084331 83 317 0.0 2.0 0.00 0.02 0.00 86 1012.0
20200711083329 83 317 0.0 2.0 0.00 0.02 0.00 86 1011.9
20200711082312 83 317 0.0 1.0 0.00 0.02 0.00 86 1012.0
20200711081331 83 317 0.0 2.0 0.00 0.02 0.00 86 1012.2
20200711080329 83 317 0.0 1.0 0.00 0.02 0.00 86 1012.3
20200711075328 83 308 0.0 0.0 0.00 0.02 0.00 86 1012.4
20200711074325 83 307 0.0 0.0 0.00 0.02 0.00 86 1012.3
20200711073323 83 308 0.0 0.0 0.00 0.02 0.00 86 1012.4
20200711072323 83 308 0.0 0.0 0.00 0.02 0.00 86 1012.6
20200711071324 83 308 0.0 0.0 0.00 0.02 0.00 86 1012.6
20200711070322 83 308 0.0 0.0 0.00 0.02 0.00 86 1012.7
20200711065319 83 308 0.0 0.0 0.00 0.02 0.00 86 1012.8
20200711064319 83 308 0.0 0.0 0.00 0.02 0.00 86 1012.9
20200711063317 84 308 0.0 2.0 0.00 0.02 0.00 85 1012.9
20200711062316 84 296 1.0 3.0 0.00 0.02 0.00 86 1013.1
20200711061318 84 296 0.0 2.0 0.00 0.02 0.00 86 1013.2
20200711060317 84 296 0.0 2.0 0.00 0.02 0.00 85 1013.2
20200711055313 84 296 0.0 3.0 0.00 0.02 0.00 85 1013.2
20200711054315 84 323 0.0 2.0 0.00 0.02 0.00 85 1013.4
20200711053313 84 333 1.0 3.0 0.00 0.02 0.00 85 1013.5
20200711052332 84 295 0.0 3.0 0.00 0.02 0.00 85 1013.5
20200711051331 84 295 0.0 2.0 0.00 0.02 0.00 85 1013.6
20200711050313 84 295 1.0 2.0 0.00 0.02 0.00 86 1013.7
20200711045329 84 295 0.0 3.0 0.00 0.02 0.02 86 1013.7
20200711044327 84 293 0.0 3.0 0.00 0.02 0.02 86 1013.9
20200711043330 84 292 1.0 3.0 0.00 0.02 0.02 85 1013.9
20200711042329 84 328 0.0 1.0 0.00 0.02 0.02 85 1014.0
20200711041327 84 329 1.0 4.0 0.00 0.02 0.02 85 1014.0
20200711040332 84 297 1.0 2.0 0.00 0.02 0.02 85 1014.1
20200711035326 84 297 0.0 2.0 0.00 0.02 0.02 86 1014.2
20200711034325 84 297 1.0 4.0 0.00 0.02 0.02 85 1014.2
20200711033322 84 291 1.0 4.0 0.00 0.02 0.02 85 1014.2
20200711032325 85 307 1.0 3.0 0.00 0.02 0.02 85 1014.3
20200711031323 85 321 1.0 2.0 0.00 0.02 0.02 85 1014.4
20200711030321 85 327 0.0 2.0 0.00 0.02 0.02 85 1014.5
20200711025320 85 311 0.0 3.0 0.00 0.02 0.02 85 1014.3
20200711024318 85 291 1.0 4.0 0.00 0.02 0.02 85 1014.1
20200711023317 85 279 1.0 4.0 0.00 0.02 0.02 84 1014.0
20200711022319 85 267 1.0 4.0 0.00 0.02 0.02 84 1014.0
20200711021320 85 350 0.0 4.0 0.00 0.02 0.02 84 1013.8
20200711020317 85 283 2.0 4.0 0.00 0.02 0.02 84 1013.8
20200711015318 85 290 2.0 4.0 0.00 0.02 0.02 84 1013.8
20200711014316 85 290 2.0 4.0 0.00 0.02 0.02 84 1013.7
20200711013315 85 289 2.0 4.0 0.00 0.02 0.02 84 1013.7
20200711012313 85 296 2.0 5.0 0.00 0.02 0.02 84 1013.6
20200711011316 85 300 1.0 3.0 0.00 0.02 0.02 84 1013.7
20200711010315 85 300 1.0 4.0 0.00 0.02 0.02 84 1013.7
20200711005331 85 300 1.0 3.0 0.00 0.02 0.02 84 1013.7
20200711004315 85 314 1.0 2.0 0.00 0.02 0.02 84 1013.7
20200711003332 86 306 0.0 2.0 0.00 0.02 0.02 84 1013.7
20200711002332 86 305 1.0 3.0 0.00 0.02 0.02 83 1013.7
20200711001314 86 288 2.0 5.0 0.00 0.02 0.02 82 1013.5
20200711000313 86 287 1.0 4.0 0.00 0.02 0.02 81 1013.4
20200710235329 86 307 0.0 3.0 0.00 0.02 0.02 81 1013.2
20200710234327 87 296 3.0 5.0 0.00 0.02 0.02 79 1013.2
20200710233330 87 290 0.0 3.0 0.00 0.02 0.02 80 1013.1
20200710232329 87 297 2.0 7.0 0.00 0.02 0.02 78 1013.1
20200710231327 88 294 2.0 7.0 0.00 0.02 0.02 76 1013.0
20200710230329 88 304 1.0 3.0 0.00 0.02 0.02 76 1012.9
20200710225325 88 336 1.0 5.0 0.00 0.02 0.02 77 1012.9
20200710224324 88 288 2.0 6.0 0.00 0.02 0.02 77 1012.8
20200710223326 88 338 2.0 7.0 0.00 0.02 0.02 77 1012.7
20200710222324 88 306 3.0 5.0 0.00 0.02 0.02 77 1012.6
20200710221323 88 298 1.0 4.0 0.00 0.02 0.02 77 1012.5
20200710220326 88 342 2.0 5.0 0.00 0.02 0.02 75 1012.6
20200710215323 88 326 2.0 8.0 0.00 0.02 0.02 76 1012.5
20200710214321 88 355 2.0 7.0 0.00 0.02 0.02 77 1012.6
20200710213320 89 312 2.0 6.0 0.00 0.02 0.02 77 1012.6
20200710212322 89 336 1.0 5.0 0.00 0.02 0.02 77 1012.7
20200710211322 89 351 2.0 5.0 0.00 0.02 0.02 77 1012.8
20200710210320 89 333 2.0 5.0 0.00 0.02 0.02 74 1012.8
20200710205318 89 336 1.0 4.0 0.00 0.02 0.02 74 1012.9